CSS (WENTIAN)

Last updated on Thu Oct 30 2025 00:02:11 GMT+0000 (Coordinated Universal Time)

1 53239U 22085A 25302.20706547 .00041109 00000+0 47775-3 0 9999 2 53239 41.4665 287.2021 0010603 303.7055 56.2773 15.60898372173847
UTC large
Height (km)
Speed (km/s)
/
Latitude / Longitude
Inclination (degrees)
Orbital Period (minutes)
Azimuth
Elevation
Range (km)
Doppler Factor

Next 0 passes for location: London (51.5072 / 0.1276)

Sorry there are no passes over London.